KCMH Airport Diagram

We have created a template for each of the higher traffic airports in the vZID airspace. They include KCMH, KCRW, KCVG, KDAY, KIND, KLEX and KSDF. You wil find usefull information including the airport diagram, weather, and specific airport procedures.

KCMH Weather

[Source: ADDS]
METAR
KCMH 251951Z 24016G26KT 10SM SCT045 OVC200 31/16 A2997 RMK AO2 PK WND 21026/1931 SLP142 T03110161 =
KCMH 251727Z 2518/2618 20013G21KT P6SM BKN040 FM252100 24012G23KT P6SM VCTS BKN040CB FM260100 23006KT P6SM BKN120 FM260900 23006KT P6SM BKN060 FM261100 23007KT P6SM VCSH BKN050 FM261500 25009KT P6SM -SHRA VCTS BKN050CB
TAF
KCMH 251727Z 2518/2618 20013G21KT P6SM BKN040 FM252100 24012G23KT P6SM VCTS BKN040CB FM260100 23006KT P6SM BKN120 FM260900 23006KT P6SM BKN060 FM261100 23007KT P6SM VCSH BKN050 FM261500 25009KT P6SM -SHRA VCTS BKN050CB =

KCMH Operations

Calm wind runway(s) up to 10 kts: Arriving/Departing 28L/R

Typically, Rw 10R/28L for departures to the West and South and Rw 10L/28R for departures to the North and East.

FBOs: Lane Aviation midfield near Tower, Signature South of Twy B.

Advise ATC if you have updated scenery for KCMH as there are significant changes to the runway/taxiways on the South side of the airport. Default scenery does not match the Airport Diagram available through the usual sources.

JSN Epic template designed by JoomlaShine.com